Weather in Kirovo

Russia / Saratov Oblast     50°48′22″N   46°41′57″E
temp.,
°C
wind,
m/s
gust,
m/s
humid.,
%
clouds,
%
prec.,
mm/h
press.,
hPa
HPBL,
m
17 may, mon
mon1701:00+21sse454941 0.0 101566
04:00+20se333882 0.0 101538
07:00+20ese48455 0.0 1016142
10:00+27ese7112812 0.0 1015552
13:00+31se8101989 0.0 10152943
16:00+31se78195 0.0 10142904
19:00+27ese49303 0.0 1013197
22:00+22e511385 0.0 1013149
18 may, tue
tue1801:00+19e511425 0.0 1013161
04:00+18e410434 0.0 1012137
07:00+20ese615422 0.0 1012272
10:00+27se712270 0.0 1012528
13:00+32se912180 0.0 10113551
16:00+32se811175 0.0 10113812
19:00+29ese712281 0.0 1010370
22:00+25e91633100 0.0 1010416
19 may, wed
wed1901:00+21e6134698 0.4 1010221
04:00+21e6154278 0.6 1009326
07:00+21ese5135097 0.0 1009417
10:00+26ese7113299 0.0 1009712
13:00+29se81126100 0.0 10091304
16:00+29sse5102693 0.0 10091426
19:00+27se3738100 0.0 1008138
22:00+22ssw335677 0.4 101047
20 may, thu
thu2001:00+18w3777100 0.8 1011176
04:00+16wsw4882100 1.0 1012330
07:00+15wsw3586100 0.4 1013372
10:00+17ssw3476100 1.1 1014609
13:00+20s455781 1.7 10141473
16:00+23ssw4642100 1.7 10142303
19:00+21sw565398 0.0 1015691
22:00+17sw356444 0.0 101686
21 may, fri
fri2101:00+17sw35660 0.0 1017101
04:00+14sw33794 0.0 101734
07:00+16sw2375100 0.0 1019166
10:00+21sw345116 0.0 1020946
13:00+24sw344244 0.0 10201749
16:00+25sw233732 0.0 10201932
19:00+25sse1243100 0.0 102076
22:00+20sse225299 0.0 102111